Wind_Speed
42 41 38 34 32 31 31 32 32 31 31 30 29 29 29 29 27 27 27 26 26 26 26 26 26 27 27 28 28 28 28 29 31 32 33 34 34 34
34 32 30 29 29 28 29 29 29 28 29 28 27 26 25 25 24 24 25 26 26 26 26 26 27 27 28 28 29 29 28 29 30 31 33 34 35 36
28 27 25 25 25 26 26 26 25 25 26 23 22 22 23 22 22 22 23 24 25 26 27 28 29 30 31 31 32 32 31 31 32 32 33 34 36 37
25 25 24 24 24 23 21 20 19 18 18 17 17 18 19 20 21 22 23 24 25 27 28 30 31 32 33 34 35 35 35 35 36 36 36 36 36 38
23 22 21 20 19 17 15 13 13 12 13 14 14 15 17 18 20 22 24 26 28 29 30 31 33 34 35 36 37 37 38 38 39 40 40 39 38 39
22 20 18 16 14 13 11 11 11 11 12 13 15 16 18 19 21 23 25 27 29 30 32 34 36 37 37 38 39 40 40 41 41 42 43 43 41 40
20 17 15 12 10 9 9 10 10 11 13 15 16 17 19 21 23 25 27 29 31 33 34 36 37 38 39 40 40 41 41 42 42 43 44 45 43 40
16 14 12 10 9 8 9 10 11 12 14 15 17 18 20 22 23 25 27 28 30 32 33 35 37 38 39 40 41 41 41 41 42 42 43 44 43 40
12 10 9 9 9 9 10 11 12 13 14 15 16 17 18 19 21 22 23 25 27 28 30 32 33 35 36 38 39 40 40 40 41 41 41 41 41 40
8 8 8 8 8 9 10 10 11 11 11 12 13 14 15 17 18 20 23 25 27 29 32 33 35 36 36 36 37 37 38 39 39 40 39 39 38 38
7 6 7 7 8 8 8 9 8 8 8 9 10 12 15 18 21 24 26 28 31 33 34 35 36 36 36 36 36 36 36 36 36 36 37 36 35 35
6 6 7 7 7 7 7 6 6 7 8 10 12 15 18 21 23 25 27 29 31 32 33 34 34 34 34 35 35 35 34 34 34 33 33 32 31 30
7 6 6 6 6 6 6 6 6 8 9 11 14 17 19 21 23 25 26 27 28 29 30 30 30 30 30 30 31 31 31 31 31 31 30 29 28 26
7 7 7 6 6 6 6 7 7 9 10 12 15 17 19 21 23 24 25 26 26 27 27 26 26 26 26 26 27 27 28 28 28 28 27 26 25 23
8 7 7 7 7 7 7 8 9 10 11 13 15 18 19 21 23 25 25 25 25 25 24 24 24 24 24 24 24 25 26 25 25 25 25 23 22 21
8 7 7 8 8 8 9 9 9 10 11 13 16 17 19 21 23 25 26 26 25 24 24 24 24 23 23 22 22 22 23 24 23 23 22 21 20 20
8 8 8 9 9 9 9 8 8 10 12 13 15 17 19 21 23 25 26 26 26 26 25 25 24 23 22 21 20 20 20 22 23 22 22 21 20 20
9 9 9 9 9 9 8 8 9 10 11 12 14 16 19 21 23 25 27 28 27 27 26 26 26 24 22 20 19 19 18 19 21 24 24 24 23 21
9 9 9 10 10 10 9 9 10 10 9 10 12 15 18 20 23 25 28 29 30 29 28 27 26 25 23 21 19 19 18 18 19 22 25 27 27 25
9 9 10 11 11 10 10 10 10 9 8 9 11 14 17 20 22 25 28 30 31 31 30 28 26 24 22 20 19 18 18 19 19 21 23 27 30 31
10 10 11 11 12 12 12 11 10 9 8 9 10 13 16 18 21 25 28 31 32 33 33 31 28 25 22 19 18 17 17 18 19 20 22 24 28 33
12 12 12 13 13 13 13 12 11 9 9 9 9 11 14 17 20 24 27 30 32 33 34 33 30 27 23 20 18 17 17 17 18 19 21 23 25 29
14 14 14 15 15 14 14 13 12 11 11 11 11 12 14 17 20 23 26 29 31 33 34 34 32 29 26 23 20 19 18 18 18 18 20 22 24 27
Wind_Direction
271 270 268 265 262 258 257 256 252 249 244 238 236 237 237 237 237 240 243 246 247 248 251 253 255 257 258 260 261 261 262 263 263 262 262 262 262 261
268 265 262 260 256 252 249 249 244 238 233 229 229 229 230 233 237 242 246 249 249 251 253 255 256 257 258 259 260 261 261 263 264 263 262 261 259 257
254 253 253 250 244 239 237 235 232 230 228 225 226 230 233 239 243 248 252 256 256 257 258 259 261 262 262 263 263 263 263 264 264 264 264 262 258 255
240 238 235 231 228 228 230 231 232 233 233 234 237 242 247 252 256 258 261 264 265 265 264 264 264 264 265 266 265 265 266 265 264 264 264 262 259 254
226 214 211 216 222 227 232 238 243 245 247 249 251 255 258 260 261 262 264 266 267 267 266 266 265 265 266 266 267 267 266 266 263 262 262 262 259 255
211 212 218 225 231 234 245 250 250 250 253 255 257 258 259 260 262 263 264 265 266 266 267 267 267 267 267 268 267 267 265 264 263 261 260 260 259 255
214 223 234 240 241 244 249 249 251 252 254 255 257 259 262 264 266 268 268 269 269 269 269 268 269 269 268 268 268 268 266 264 263 262 261 260 258 255
219 227 235 239 239 240 245 249 253 256 259 261 264 266 269 271 272 273 273 274 275 275 275 274 273 272 271 270 270 268 267 265 264 264 262 260 258 254
219 222 226 232 237 245 249 252 256 260 264 267 270 273 275 277 279 280 281 282 282 282 281 279 277 275 273 272 270 268 267 265 264 264 264 263 260 256
224 225 230 234 242 245 250 256 259 263 268 272 275 278 282 286 289 291 292 291 290 289 287 285 283 280 278 275 272 270 268 266 264 264 265 265 263 259
224 228 232 236 243 247 250 253 255 261 268 275 281 290 296 300 301 300 299 297 296 294 291 289 285 282 279 275 272 269 268 266 265 264 264 264 263 259
226 231 233 236 238 240 239 242 252 266 278 289 298 304 306 307 308 307 306 305 304 302 299 295 290 285 280 276 272 268 266 264 264 263 261 260 261 259
211 213 217 221 224 231 236 245 260 277 290 299 306 310 313 314 315 316 316 316 314 312 308 303 298 292 286 280 274 269 264 261 260 260 257 256 256 254
199 202 208 215 223 231 244 260 276 290 300 307 313 318 321 323 326 328 328 327 323 319 315 310 304 300 294 288 281 273 265 260 257 256 253 251 249 247
205 209 215 222 232 245 260 272 283 293 304 314 322 327 331 334 336 336 336 334 329 325 321 316 310 306 300 294 287 278 269 260 254 250 248 248 244 240
212 215 221 230 245 258 267 273 283 297 312 321 328 334 338 342 343 343 341 338 333 328 323 319 315 310 306 300 293 284 273 262 253 248 243 240 237 230
223 227 231 240 252 263 269 278 292 308 318 324 333 340 346 348 349 349 347 344 339 332 325 319 316 314 310 305 298 290 280 267 257 249 239 232 228 226
228 232 238 246 256 264 271 282 293 303 313 326 339 348 354 356 355 354 352 350 346 340 331 323 316 312 308 305 301 294 286 276 263 253 244 235 229 225
229 234 239 247 255 262 271 280 286 295 310 331 345 354 358 0 360 359 357 354 352 348 340 331 322 315 308 303 298 293 287 280 269 260 253 245 236 230
238 241 244 249 254 259 265 269 275 288 308 329 345 355 359 0 1 1 359 357 355 353 349 342 333 324 314 306 299 293 288 282 276 268 260 253 246 240
248 251 253 255 256 255 258 261 265 277 298 321 339 349 354 357 359 359 358 358 357 356 354 351 345 336 326 317 308 299 291 285 279 274 269 262 254 248
254 257 261 261 259 253 254 256 259 269 287 307 323 336 343 348 352 354 355 356 357 357 357 355 352 346 339 330 321 311 301 293 285 277 272 267 262 255
256 260 264 266 264 256 251 253 258 266 278 291 305 318 328 335 341 345 348 351 353 355 356 356 354 351 346 339 331 322 312 304 295 286 278 271 266 261
Height
5732 5733 5733 5735 5736 5738 5741 5743 5745 5746 5747 5750 5752 5754 5758 5761 5764 5767 5769 5772 5774 5775 5777 5779 5781 5782 5783 5784 5785 5785 5786 5786 5786 5786 5786 5786 5787 5788
5721 5722 5724 5726 5728 5730 5733 5735 5737 5739 5741 5742 5745 5747 5750 5753 5756 5759 5761 5763 5765 5767 5769 5771 5772 5773 5774 5775 5776 5776 5777 5777 5777 5777 5776 5776 5777 5778
5713 5715 5717 5719 5721 5724 5726 5728 5730 5732 5734 5736 5738 5740 5743 5746 5748 5751 5754 5756 5757 5759 5760 5762 5763 5764 5765 5765 5766 5766 5766 5766 5767 5767 5766 5766 5766 5767
5706 5708 5710 5713 5716 5718 5721 5723 5726 5727 5729 5731 5733 5735 5738 5740 5742 5744 5746 5748 5749 5750 5751 5752 5753 5754 5754 5754 5755 5755 5755 5755 5755 5755 5755 5754 5754 5755
5701 5702 5704 5708 5711 5714 5716 5718 5721 5723 5725 5727 5729 5731 5733 5735 5737 5738 5739 5740 5741 5741 5742 5742 5742 5743 5743 5743 5743 5742 5742 5742 5742 5742 5742 5742 5742 5742
5696 5698 5700 5703 5706 5709 5711 5714 5716 5718 5720 5722 5724 5726 5728 5729 5730 5731 5731 5731 5731 5731 5731 5731 5731 5731 5731 5730 5730 5729 5729 5729 5729 5729 5729 5729 5728 5728
5691 5694 5696 5699 5701 5704 5707 5709 5712 5714 5716 5717 5719 5720 5721 5722 5722 5722 5723 5722 5722 5721 5720 5720 5719 5718 5717 5717 5716 5715 5715 5715 5715 5715 5715 5714 5714 5715
5687 5690 5693 5695 5697 5700 5703 5706 5708 5710 5711 5712 5713 5714 5715 5715 5715 5714 5714 5713 5713 5712 5711 5709 5708 5707 5705 5704 5703 5702 5702 5701 5701 5701 5701 5701 5700 5700
5684 5687 5689 5692 5694 5697 5700 5702 5703 5705 5707 5707 5708 5708 5708 5708 5708 5707 5706 5705 5703 5702 5701 5699 5697 5695 5694 5692 5691 5689 5689 5688 5688 5687 5687 5687 5686 5687
5682 5684 5687 5689 5691 5694 5696 5698 5700 5701 5702 5702 5702 5702 5702 5702 5701 5700 5699 5697 5695 5693 5690 5688 5686 5684 5682 5680 5678 5677 5675 5675 5674 5674 5673 5673 5673 5674
5680 5683 5685 5687 5689 5691 5693 5695 5696 5697 5697 5697 5697 5697 5696 5696 5695 5693 5691 5689 5685 5682 5679 5676 5673 5670 5669 5667 5665 5664 5663 5662 5662 5661 5661 5661 5661 5662
5679 5681 5683 5685 5687 5689 5690 5692 5693 5693 5693 5693 5693 5692 5691 5690 5687 5685 5682 5679 5675 5671 5667 5664 5661 5658 5656 5655 5653 5652 5651 5651 5651 5651 5651 5651 5651 5651
5677 5679 5681 5683 5685 5686 5688 5689 5689 5690 5690 5690 5689 5688 5686 5683 5680 5677 5673 5669 5665 5661 5658 5654 5651 5648 5645 5643 5642 5641 5641 5641 5641 5641 5641 5642 5643 5643
5676 5678 5680 5681 5682 5684 5685 5686 5686 5686 5686 5686 5684 5682 5680 5677 5674 5670 5666 5662 5658 5654 5650 5647 5643 5640 5637 5635 5633 5632 5631 5631 5632 5632 5633 5634 5635 5636
5674 5676 5677 5679 5680 5681 5682 5682 5683 5683 5682 5681 5679 5677 5674 5671 5667 5664 5660 5656 5652 5648 5644 5640 5637 5634 5631 5628 5626 5624 5623 5623 5624 5625 5626 5627 5629 5630
5672 5674 5675 5676 5677 5678 5678 5679 5679 5679 5678 5677 5675 5673 5670 5666 5662 5659 5655 5651 5647 5643 5639 5635 5632 5629 5626 5622 5620 5617 5616 5616 5617 5618 5620 5621 5623 5624
5670 5671 5672 5673 5674 5674 5675 5675 5675 5675 5674 5673 5671 5668 5665 5662 5659 5655 5651 5647 5642 5638 5634 5630 5627 5624 5621 5617 5614 5612 5610 5610 5610 5611 5614 5615 5616 5618
5668 5669 5670 5670 5671 5671 5672 5672 5672 5672 5671 5670 5667 5665 5662 5659 5655 5651 5647 5643 5639 5634 5629 5625 5621 5618 5616 5613 5610 5607 5606 5605 5604 5605 5607 5609 5610 5612
5665 5666 5667 5667 5668 5668 5668 5669 5669 5669 5668 5666 5664 5661 5659 5656 5653 5649 5645 5640 5636 5631 5626 5621 5616 5612 5610 5607 5605 5603 5601 5599 5599 5599 5600 5602 5603 5605
5661 5662 5663 5664 5664 5664 5665 5666 5666 5665 5664 5662 5660 5658 5656 5653 5650 5647 5643 5638 5633 5628 5623 5617 5612 5607 5604 5602 5599 5597 5595 5594 5593 5593 5593 5595 5596 5598
5657 5658 5659 5659 5660 5661 5661 5662 5662 5661 5660 5659 5657 5655 5653 5651 5648 5645 5641 5636 5631 5626 5620 5614 5608 5603 5599 5596 5594 5592 5590 5589 5588 5587 5587 5588 5589 5591
5653 5654 5654 5655 5655 5656 5657 5657 5658 5657 5656 5655 5654 5652 5651 5648 5646 5643 5639 5634 5630 5624 5618 5612 5606 5601 5596 5593 5590 5587 5585 5584 5583 5582 5581 5581 5581 5582
5648 5649 5649 5650 5650 5651 5652 5652 5652 5652 5652 5652 5650 5649 5647 5645 5643 5640 5636 5632 5627 5622 5617 5611 5605 5599 5594 5590 5587 5584 5581 5579 5577 5576 5575 5574 5573 5573